Home > Weather > Apia > Past weeks

Flag for Samoa Weather for the Past 2 Weeks in Apia, Samoa

Now
88 °F

Overcast.


Feels Like: 102 °F
Forecast: 80 / 87 °F
Wind: 13 mph from East

Location: Faleolo Intl / Apia

Current Time: Feb 7, 2016 at 6:45:06 PM

Latest Report: Feb 7, 2016 at 5:00 PM


Visibility: N/A

Pressure: 29.74 "Hg

Humidity: 75%

Dew point: 79 °F

Location of ApiaLocation

Historic Weather in Apia — Graph

°F

Apia Temperature Yesterday

Maximum temperature yesterday: 91 °F (at 1:00 PM)
Minimum temperature yesterday: 75 °F (at 4:00 AM)
Average temperature yesterday: 84 °F

High & Low Weather Summary for the Past Weeks

 TemperatureHumidityPressure
High91 °F (Feb 3, 5:00 PM)100% (Jan 24, 11:00 PM)29.95 "Hg (Jan 24, 11:00 PM)
Low72 °F (Jan 30, 6:00 AM)56% (Feb 6, 1:00 PM)29.53 "Hg (Jan 24, 9:00 AM)
Average82 °F83%29.82 "Hg
* Reported Jan 23 6:00 PM — Feb 7 5:00 PM, Apia, Weather by CustomWeather, © 2016

Note: Actual official high and low records may vary slightly from our data, if they occured in-between our weather recording intervals... More about our weather records

Advertising

Apia Weather History for the Previous 24 Hours

 ConditionsComfort  
Time TempWeatherWind HumidityBarometerVisibility
5:00 PM
Sun, Feb 7
88 °FOvercast.13 mph75%29.74 "HgN/A
4:00 PM90 °FBroken clouds.12 mph71%29.77 "HgN/A
3:00 PM90 °FBroken clouds.7 mph71%29.77 "HgN/A
2:00 PM88 °FBroken clouds.5 mph75%29.80 "HgN/A
1:00 PM88 °FBroken clouds.12 mph75%29.83 "HgN/A
12:00 PM90 °FPartly sunny.7 mph71%29.83 "HgN/A
10:00 AM86 °FBroken clouds.7 mph79%29.83 "HgN/A
9:00 AM82 °FBroken clouds.No wind84%29.83 "HgN/A
8:00 AM79 °FMore clouds than sun.No wind94%29.83 "HgN/A
7:00 AM77 °FMostly cloudy.No wind94%29.83 "HgN/A
5:00 AM77 °FPartly cloudy.No wind94%29.80 "HgN/A
4:00 AM79 °FPassing clouds.No wind89%29.80 "HgN/A
3:00 AM79 °FMostly cloudy.No wind94%29.80 "HgN/A
2:00 AM79 °FPartly cloudy.No wind94%29.83 "HgN/A
1:00 AM81 °FPassing clouds.No wind89%29.86 "HgN/A
12:00 AM82 °FPassing clouds.5 mph84%29.83 "HgN/A
11:00 PM
Sat, Feb 6
81 °FPartly cloudy.9 mph84%29.83 "HgN/A
10:00 PM82 °FPartly cloudy.6 mph84%29.80 "HgN/A
9:00 PM84 °FPartly cloudy.10 mph79%29.80 "HgN/A
8:00 PM86 °FPartly sunny.15 mph70%29.77 "HgN/A
7:00 PM88 °FBroken clouds.12 mph70%29.74 "HgN/A
6:00 PM90 °FBroken clouds.14 mph67%29.74 "HgN/A
Weather by CustomWeather, © 2016

See weather overviewHow to use our weather pages